DMSP 5D-2 F13 DEB, 42322

Orbit data source: Space-Track

DMSP 5D-2 F13 DEB, 42322 is space debris in SSO originally from a launch on Fri, 24 Mar 1995 UTC launched from the Air Force Western Test Range (AFWTR). Debris objects in space refer to the collection of defunct objects orbiting the Earth. Examples of debris include non-operational satellites, rocket bodies, and fragments generated from explosions, collisions, or faulty payload assembly.

Loading next visibility...
Identifier
42322, 1995-015JQ
Orbit
SSO
Country
Flag of USUS
Related business
Manufacturer
Unknown
Mission
Spacecraft
Bus & Motor
Unknown
Mass
Unknown
Launch date (UTC)
1995-03-24 (32 years ago)
Launch vehicle
Unknown
Launch site
Air Force Western Test Range (AFWTR)
Object type
Payload
Rocket body
Debris
Shape & HBR
Unknown shape, 0.050 m
Radar Cross Section
Small (<0.1 m²)

Expand to show TLE details & history
Last TLE update: 1 week ago

TLE from 1 week ago
0 DMSP 5D-2 F13 DEB
1 42322U 95015JQ  26259.47913792  .00030528  00000-0  32991-2 0  9993
2 42322  98.7572 339.7214 0016404  59.3972 300.8857 14.88154186596391
Epoch: 2026-09-16T11:29Z
TLE epoch observation values (Epoch: 2026-09-16T11:29:57.516Z)
Latitude
-0.00003°
Longitude
171.80161°
Altitude
600.842 km
Speed
7.562 km/s
True Right ascension
22h 38m 53s
True Declination
0° 00' 00"
Sunlit
Object was in full shadow at epoch
Visualization orbit readout
Latitude
Unknown
Longitude
Unknown
Altitude
Unknown
Speed
Unknown
Apparent Right ascension
Unknown
Apparent Declination
Unknown
Sunlit
N/A
Visualization observer readout
Local Sidereal Time
04:06:54
Azimuth
Unknown
Elevation
Unknown
Doppler factor
Unknown
Orbital elements
Apogee altitude
612.222 km
Perigee altitude
589.325 km
Semi-major axis
6,978.91 km
Eccentricity
0.00164
Inclination
98.7572°
RAAN
339.7214°
Arg. of periapsis
59.3972°
True anomaly
300.72421°
Mean anomaly
300.8857°
Eccentric anomaly
300.80497°
Mean motion
3.72273 °/min
Orbital period
96.7 mins
BSTAR
0.0032991

Documentation

Showing up to 5 results
|